Вернуться в каталог

TOPSAT

АктивенНаукаSSO
NORAD 28891·PAYLOAD·🇬🇧 United Kingdom

Запущен Oct 27, 2005 с Plesetsk Cosmodrome

Loading…

Ближайшие Пролёты (ближайшие 24 часа)

TLE

СвежийSource: Space-Track

Эпоха: Sep 14, 2026, 09:13 UTC

1 28891U 05043B   26257.38423042  .00000279  00000-0  61849-4 0  9998
2 28891  98.3216  36.4075 0015862   9.5322 350.6178 14.64600925113650

Отслеживайте TOPSAT в реальном времени с AllMySat

Download on the App Store